Tracking 35275 objects as of 8-Sep-2026
HD Live streaming from Space Station
objects crossing your sky now

SL-4 R/B


SL-4 R/B is no longer on orbit


NORAD ID: 16921
Int'l Code: 1986-064B
Launch date: August 27, 1986
Source: Commonwealth of Independent States (former USSR) (CIS)
Launch site: TYURATAM MISSILE AND SPACE COMPLEX (TTMTR)
Decay date: 1986-09-02

Note: This is a ROCKET BODY
Your satellite tracking list
Your tracking list is empty




NASA's NSSDC Master Catalog

Two Line Element Set (TLE):
1 16921U 86064B   86245.15887919  .20566551 +33092-4 +18624-3 0  9991
2 16921 064.8727 165.0035 0027176 056.5121 305.0047 16.49248522000921
Source of the keplerian elements: AFSPC